Simultaneous Nadir Overpasses (SNOs) Predictions

Prediction of SNOs between GOES-15 and METOP-A Satellite Orbit:

Table of predicted SNOs for the next 14.0 days since TLE Epoch: 2/3/2012
<
Index Date Time (GOES-15) GOES-15 Lat,Lon METOP-A Lat,Lon Distance(km) Time Diff (sec)
1 02/04/2012 18:36:00 -0.00,-134.92 0.41,-136.82 216.90 80
2 02/05/2012 18:18:01 -0.00,-134.95 -0.70,-131.83 355.70 80
3 02/07/2012 06:37:04 0.00,-135.02 -0.31,-136.43 161.05 80
4 02/08/2012 06:13:45 -0.00,-135.05 0.80,-131.44 411.12 80
5 02/09/2012 18:32:38 0.00,-135.07 0.18,-136.01 106.03 80
6 02/10/2012 18:14:40 0.00,-135.10 -0.93,-131.02 465.89 80
7 02/12/2012 06:33:42 -0.00,-135.16 -0.08,-135.62 51.98 80
8 02/14/2012 18:31:56 0.00,-135.19 0.00,-135.18 0.93 80
9 02/17/2012 06:27:40
